TimePDT,TemperatureF,Dew PointF,Humidity,Sea Level PressureIn,VisibilityMPH,Wind Direction,Wind SpeedMPH,Gust SpeedMPH,PrecipitationIn,Events,Conditions,WindDirDegrees,DateUTC
12:53 AM,53.1,48.0,83,29.79,10.0,Calm,Calm,-,N/A,,Clear,0,2011-10-10 07:53:00
1:53 AM,53.1,48.9,86,29.77,10.0,Calm,Calm,-,N/A,,Clear,0,2011-10-10 08:53:00
2:53 AM,52.0,48.9,89,29.75,10.0,SE,3.5,-,N/A,,Overcast,140,2011-10-10 09:53:00
3:53 AM,52.0,51.1,97,29.71,10.0,SSE,3.5,-,N/A,,Overcast,150,2011-10-10 10:53:00
4:53 AM,52.0,51.1,97,29.67,10.0,SE,6.9,-,N/A,,Mostly Cloudy,130,2011-10-10 11:53:00
5:53 AM,51.8,51.8,100,29.66,10.0,SSE,6.9,-,N/A,,Overcast,150,2011-10-10 12:53:00
6:53 AM,53.1,51.1,93,29.64,10.0,Calm,Calm,-,0.00,,Overcast,0,2011-10-10 13:53:00
7:53 AM,53.6,50.0,88,29.62,10.0,ESE,3.5,-,N/A,,Overcast,110,2011-10-10 14:53:00
8:53 AM,54.0,51.1,90,29.61,9.0,Calm,Calm,-,0.01,,Overcast,0,2011-10-10 15:53:00
9:21 AM,53.6,51.8,94,29.60,5.0,Calm,Calm,-,0.03,Rain,Light Rain,0,2011-10-10 16:21:00
9:38 AM,53.6,51.8,94,29.58,3.0,Calm,Calm,-,0.04,Rain,Light Rain,0,2011-10-10 16:38:00
9:53 AM,53.6,51.8,94,29.57,7.0,East,5.8,-,N/A,Rain,Light Rain,100,2011-10-10 16:53:00
10:23 AM,53.6,51.8,94,29.56,10.0,East,3.5,-,0.00,,Overcast,90,2011-10-10 17:23:00
10:53 AM,53.6,51.8,94,29.55,7.0,SW,3.5,-,N/A,,Overcast,220,2011-10-10 17:53:00
11:53 AM,54.0,51.1,90,29.55,5.0,Calm,Calm,-,0.00,Rain,Light Rain,0,2011-10-10 18:53:00
12:02 PM,53.6,51.8,94,29.55,5.0,SSW,3.5,-,0.00,,Overcast,210,2011-10-10 19:02:00
12:53 PM,55.9,52.0,87,29.54,10.0,SE,8.1,-,0.00,,Overcast,130,2011-10-10 19:53:00
1:53 PM,57.0,54.0,89,29.53,10.0,SSE,9.2,-,0.02,Rain,Light Rain,150,2011-10-10 20:53:00
2:53 PM,60.1,54.0,80,29.54,10.0,SSE,10.4,-,0.00,,Overcast,160,2011-10-10 21:53:00
3:53 PM,60.1,54.0,80,29.55,10.0,South,5.8,-,N/A,,Mostly Cloudy,170,2011-10-10 22:53:00
4:53 PM,59.0,52.0,78,29.57,10.0,South,16.1,29.9,N/A,,Overcast,190,2011-10-10 23:53:00
5:53 PM,59.0,51.1,75,29.59,10.0,South,12.7,20.7,N/A,,Overcast,170,2011-10-11 00:53:00
6:53 PM,57.0,51.1,81,29.60,10.0,South,11.5,19.6,0.00,,Overcast,180,2011-10-11 01:53:00
7:53 PM,57.9,50.0,75,29.60,10.0,SSE,13.8,20.7,0.00,,Overcast,160,2011-10-11 02:53:00
8:53 PM,55.9,52.0,87,29.61,10.0,SSE,10.4,-,0.01,Rain,Light Rain,150,2011-10-11 03:53:00
9:16 PM,55.4,51.8,88,29.60,4.0,SSE,10.4,-,0.02,Rain,Light Rain,150,2011-10-11 04:16:00
9:28 PM,55.4,51.8,88,29.60,10.0,SSE,8.1,-,0.02,Rain,Light Rain,160,2011-10-11 04:28:00
9:53 PM,55.0,52.0,89,29.59,9.0,SE,5.8,-,0.03,Rain,Light Rain,130,2011-10-11 04:53:00
10:53 PM,54.0,53.1,97,29.59,6.0,SSE,4.6,-,0.04,Rain,Light Rain,150,2011-10-11 05:53:00
11:53 PM,54.0,52.0,93,29.57,7.0,SSE,9.2,-,0.07,,Overcast,150,2011-10-11 06:53:00
11:57 PM,53.6,51.8,94,29.57,10.0,SSE,9.2,-,N/A,,Overcast,150,2011-10-11 06:57:00